Other Surface Observations
Issued by NWS Charleston, SC

Home | Current Version | Previous Version | Text Only | Print | Product List | Glossary On
Versions: 1 2 3 4 5 6 7 8 9 10 11 12 13 14 15 16 17 18 19 20 21 22 23 24 25 26 27 28 29 30 31 32 33 34 35 36 37 38 39 40 41 42 43 44 45 46 47 48 49 50
306
SXUS52 KCHS 100127
OSOCHS

MARINE OBSERVATIONS
NATIONAL WEATHER SERVICE CHARLESTON SC
800 PM EST TUE FEB 09 2016

...DOWNTOWN CHARLESTON AND HARBOR...

CITY           SKY/WX    TMP DP  RH WIND       PRES   REMARKS
WATERFRONT PRK   N/A     41  24  51 W7        29.75R

...LAKE MOULTRIE...

CITY           SKY/WX    TMP DP  RH WIND       PRES   REMARKS
PINOPOLIS        N/A     41  25  52 W14       29.81R

...LAKE AND SUPPLEMENTAL COASTAL OBSERVATIONS...

STATION/POSITION TIME  TEMP    WIND        PRES    WAVE   SWELL
                       AIR SEA DIR/SP/G            HT/PER HT/PER/DIR
                 (UTC) (F)     (DEG/KT/KT) (MB)    (FT/S) (FT/S/D)
FORT PULASKI     0100   45 52  290/ 14/ 17 1014.0R
SAPELO ISLAND    0100   45     280/  8     1014.0R
WINYAH BAY       0000   41     270/  8     1010.0
LAKE MURRAY      0100   37     260/ 15/ 22 1011.5R
ACE BASIN NERRS  0000   40     300/  2     1012.0R


...C-MAN AND BUOY OBSERVATIONS...

STATION/POSITION TIME  TEMP    WIND        PRES    WAVE   SWELL
                       AIR SEA DIR/SP/G            HT/PER HT/PER/DIR
                 (UTC) (F)     (DEG/KT/KT) (MB)    (FT/S) (FT/S/D)
BUOY 41004       0050   47 65  280/ 27/ 33 1011.3R   9/ 8   2/14
BUOY 41008       0050   49 55  300/ 19/ 25 1012.9R   4/ 5
FOLLY BEACH CMAN 0100   40     280/  6/  9 1013.2R
CAPERS NS BUOY   0008   44     290/ 17/ 21 1011.6R
FRIPP NS BUOY    0000   44     310/ 16/ 17 1012.3R
5E ST. MARYS GA  0021      56                N/A     2/14   2/ 70/14


STATION/POSITION TIME  TEMP    WIND        PRES    WAVE   SWELL
                       AIR SEA DIR/SP/G            HT/PER HT/PER/DIR
                 (UTC) (F)     (DEG/KT/KT) (MB)    (FT/S) (FT/S/D)
FRYING PAN BUOY  0100   46 53  270/ 23/ 33 1010.1R
BUOY 41025       0050   49 74  280/ 27/ 33 1006.0R  10/15   8/110/15
CAPE LOOKOUT NC  NOT AVBL
BUOY 41002       0050   58 69  270/ 33/ 41   N/A    18/10   8/340/15
BUOY 41010       0020   63 72              1013.6R
ST AUGUSTINE FL  0100   51 57  260/ 13/ 19 1015.1R

$$




USA.gov is the U.S. government's official web portal to all federal, state and local government web resources and services.